Location: Byszew
(52.1813°N, 19.2693°E)
Time: 01:54:50
(UTC+00:00)

Meteor 2-20 - Pass Details

Date: 03 March 2021
Orbit: 940 x 958 km, 82.5° (Epoch: 11 April)

Event Time Altitude Azimuth Distance (km) Brightness Sun altitude
Rises 18:42:47 0° 349° (N) 3,623 7.9 -21.5°
Reaches altitude 10° 18:45:17 10° 351° (N) 2,676 7.1 -21.9°
Maximum altitude 18:51:25 76° 77° (ENE) 981 4.3 -22.7°
Enters shadow 18:54:06 36° 157° (SSE) 1,470 5.1 -23.1°
